Regional Weather Roundup
Issued by NWS

Home | Current Version | Previous Version | Graphics & Text | Print | Product List | Glossary On
Versions: 1 2 3 4 5 6 7 8 9 10 11 12 13 14 15 16 17 18 19 20 21 22 23 24 25 26 27 28 29 30 31 32 33 34 35 36 37 38 39 40 41 42 43 44 45 46 47 48 49 50
000
ASUS43 KLOT 301803
RWRIL

ILLINOIS REGIONAL WEATHER ROUNDUP
NATIONAL WEATHER SERVICE CHICAGO/ROMEOVILLE IL
100 PM CDT SAT APR 30 2016

NOTE: "FAIR" INDICATES FEW OR NO CLOUDS BELOW 12,000 FEET WITH NO
SIGNIFICANT WEATHER AND/OR OBSTRUCTIONS TO VISIBILITY.

* THESE STATIONS ARE NOT UNDER NWS QUALITY CONTROL. THEY ALSO MAY NOT
  REPORT WEATHER SUCH AS PRECIPITATION OR FOG.

ILZ001-002-007-009-015-016-024-301900-
NORTHWEST ILLINOIS

CITY           SKY/WX    TMP DP  RH WIND       PRES   REMARKS
MOLINE         LGT RAIN  50  47  89 E24G31    29.81F FOG
6HR MIN TEMP:  46; 6HR MAX TEMP:  51; 6HR PCP:  0.19;

STERLING*      CLOUDY    48  46  93 E18       29.89F
$$

ILZ003-004-008-010-011-017-018-301900-
NORTH CENTRAL ILLINOIS

CITY           SKY/WX    TMP DP  RH WIND       PRES   REMARKS
ROCKFORD       LGT RAIN  48  43  82 E20G25    29.97F HAZE
6HR MIN TEMP:  45; 6HR MAX TEMP:  50; 6HR PCP:  0.05;

FREEPORT*      LGT RAIN  46  44  90 E16       29.96R
DE KALB*       RAIN      45  43  92 E17G25    29.95R
$$

ILZ005-006-012>014-019>023-301900-
NORTHEAST ILLINOIS

CITY           SKY/WX    TMP DP  RH WIND       PRES   REMARKS
CHICAGO-OHARE  LGT RAIN  45  41  86 E18       29.97F FOG
6HR MIN TEMP:  45; 6HR MAX TEMP:  48; 6HR PCP:  0.10;

CHICAGO-MIDWAY LGT RAIN  46  40  79 E24G30    29.96F
6HR MIN TEMP:  46; 6HR MAX TEMP:  50; 6HR PCP:  0.14;

AURORA         LGT RAIN  47  43  86 E20G26    29.94R FOG
6HR MIN TEMP:  47; 6HR MAX TEMP:  51; 6HR PCP:  0.15;

LANSING*       LGT RAIN  46  44  91 E13       29.96F
WAUKEGAN       LGT RAIN  44  42  93 NE15G22   30.01F FOG
6HR MIN TEMP:  43; 6HR MAX TEMP:  45; 6HR PCP:  0.04;

DUPAGE AIRPORT LGT RAIN  45  40  82 E16G24    29.95F
6HR MIN TEMP:  45; 6HR MAX TEMP:  50; 6HR PCP:  0.11;

WHEELING       LGT RAIN  44  41  89 E8        30.00F FOG
6HR MIN TEMP:  44; 6HR MAX TEMP:  48; 6HR PCP:  0.08;

NORTHERLY ISL    N/A     44  40  85 E10         N/A
NORTHERLY ISL    N/A     44  40  85 E10         N/A
$$

LMZ740>746-301900-
SOUTHERN LAKE MICHIGAN

STATION/POSITION SKY/WX   TEMP    WIND        PRES    VSBY  WAVE
                          AIR SEA DIR/SP/G                  HT/PER
                          (F)     (DEG/KT/KT) (MB)    (MI)  (FT/S)
SOUTHERN BUOY              43 40   70/ 12/ 14 1018.5          1/ 3
HARRISON CRIB              44      80/ 15/ 18   N/A
BURNHAM HARBOR             44      80/  9/ 15   N/A
CALUMET HARBOR             45      60/ 17/ 19 1015.6F
BURNS HARBOR               46      90/ 12/ 18 1016.6F
MICHIGAN CITY              45      60/ 12/ 16   N/A
ST. JOSEPH                 48 47                N/A           1
$$

ILZ025>027-034>036-040-047-049-050-058-095>099-301900-
WEST-CENTRAL ILLINOIS

CITY           SKY/WX    TMP DP  RH WIND       PRES   REMARKS
QUINCY         CLOUDY    60  58  92 SE13      29.72R
MACOMB*        CLOUDY    55  55  99 E15       29.78F FOG
$$

ILZ028>032-037-038-041>044-048-051>054-059>061-301900-
CENTRAL ILLINOIS

CITY           SKY/WX    TMP DP  RH WIND       PRES   REMARKS
BLOOMINGTON    LGT RAIN  54  54 100 E15       29.84F VSB 3/4
DECATUR        CLOUDY    58  56  93 SE15      29.81F
PEORIA         RAIN      54  52  93 E14       29.81F FOG
6HR MIN TEMP:  48; 6HR MAX TEMP:  54; 6HR PCP:  0.56;

SPRINGFIELD    CLOUDY    59  58  96 SE15      29.77F FOG
6HR MIN TEMP:  54; 6HR MAX TEMP:  59; 6HR PCP:  0.37;

TAYLORVILLE    NOT AVBL
$$

ILZ033-039-045-046-055>057-062-063-301900-
EAST-CENTRAL ILLINOIS

CITY           SKY/WX    TMP DP  RH WIND       PRES   REMARKS
CHAMPAIGN      LGT RAIN  56  55  97 E18       29.84F FOG
MATTOON        LGT RAIN  58  55  90 SE13G21   29.82F
$$

ILZ079-100>102-301900-
SOUTHWEST ILLINOIS

CITY           SKY/WX    TMP DP  RH WIND       PRES   REMARKS
BELLEVILLE     CLOUDY    66  66 100 SE7       29.75F
CAHOKIA*       CLOUDY    67  62  84 S6        29.75S
SPARTA*        CLOUDY    68  63  83 S12G17    29.77F
$$

ILZ064>066-069>071-074>076-080>082-084>086-088>090-092>094-301900-
SOUTH-CENTRAL ILLINOIS

CITY           SKY/WX    TMP DP  RH WIND       PRES   REMARKS
CARBONDALE     CLOUDY    69  62  78 S14       29.79F
6HR MIN TEMP:  59; 6HR MAX TEMP:  69; 6HR PCP:  0.17;

MARION         PTSUNNY   68  64  88 SE9       29.82F
MT. VERNON     CLOUDY    64  59  82 SE7       29.82F
SALEM*         CLOUDY    63  60  91 SE8       29.81F
$$

ILZ067-068-072-073-078-083-087-091-301900-
SOUTHEAST ILLINOIS

CITY           SKY/WX    TMP DP  RH WIND       PRES   REMARKS
LAWRENCEVILLE  CLOUDY    61  60  97 SE12      29.87F
FLORA*         CLOUDY    63  61  93 SE13      29.84F
HARRISBURG*    CLOUDY    68  64  88 S13       29.84F
ROBINSON*      CLOUDY    59  58  96 SE12G17   29.87F
$$

ABBREVIATIONS USED IN REMARKS
   TC - TEMPERATURE IN CELSIUS
  WCI - WIND CHILL INDEX
   HX - HEAT INDEX
  VSB - VISIBILITY
$$





USA.gov is the U.S. government's official web portal to all federal, state and local government web resources and services.